Teterboro, NJ

11:33 PM EST on November 19, 2019 (GMT -0500)
Teterboro

Weather History for KTEB - September, 2019

Change the Weather History Date:

Wednesday, September 25, 2019

  Actual Average Record
Temperature  
Mean Temperature 68 °F -  
Max Temperature 82 °F 71 °F 91 °F (2007)
Min Temperature 55 °F 51 °F 39 °F (1997)
Cooling Degree Days 2    
Growing Degree Days 18 (Base 50)    
Moisture  
Dew Point 51 °F    
Average Humidity 58    
Maximum Humidity 81    
Minimum Humidity 35    
Precipitation  
Precipitation 0.00 in - - ()
Sea Level Pressure  
Sea Level Pressure 29.86 in    
Wind  
Wind Speed 4 mph ()    
Max Wind Speed 14 mph    
Max Gust Speed 20 mph    
Visibility 10.0 miles    
Events      
Averages and records for this station are not official NWS values.
T = Trace of Precipitation, MM = Missing Value Source: Averaged Metar Reports

Daily Weather History Graph

Daily Weather History Graph

Search for Another Location

Airport or City:

Astronomy

Sep. 25, 2019 Rise Set
Actual Time 6:46 AM EDT 6:48 PM EDT
Civil Twilight 6:19 AM EDT 7:16 PM EDT
Nautical Twilight 5:47 AM EDT 7:47 PM EDT
Astronomical Twilight 5:14 AM EDT 8:20 PM EDT
Moon 2:34 AM EDT (9/25) 5:20 PM EDT (9/25)
Length of Visible Light 12h 56m
Length of Day
12h 02m
Waning Crescent, 14% of the Moon is Illuminated
Sep 25
Waning Crescent
Sep 28
New
Oct 5
First Quarter
Oct 13
Full
Oct 21
Last Quarter

Hourly Weather History & Observations

Time (EDT) Temp. Dew Point Humidity Pressure Visibility Wind Dir Wind Speed Gust Speed Precip Events Conditions
12:51 AM 60.1 °F 48.0 °F 64% 29.86 in 10.0 mi West 5.8 mph - N/A   Clear
1:51 AM 60.1 °F 48.9 °F 67% 29.86 in 10.0 mi WNW 5.8 mph - N/A   Clear
2:51 AM 57.9 °F 48.9 °F 72% 29.85 in 10.0 mi WNW 6.9 mph - N/A   Clear
3:51 AM 57.9 °F 48.9 °F 72% 29.86 in 10.0 mi NNW 3.5 mph - N/A   Clear
4:51 AM 55.9 °F 48.9 °F 77% 29.88 in 10.0 mi NNW 3.5 mph - N/A   Clear
5:51 AM 57.0 °F 48.9 °F 74% 29.90 in 10.0 mi Calm Calm - N/A   Clear
6:51 AM 55.9 °F 48.9 °F 77% 29.91 in 10.0 mi Calm Calm - N/A   Clear
7:51 AM 57.9 °F 51.1 °F 78% 29.92 in 10.0 mi Calm Calm - N/A   Clear
8:51 AM 64.0 °F 50.0 °F 60% 29.92 in 10.0 mi North 4.6 mph - N/A   Clear
9:51 AM 68.0 °F 51.1 °F 55% 29.91 in 10.0 mi Variable 3.5 mph - N/A   Clear
10:51 AM 71.1 °F 50.0 °F 47% 29.91 in 10.0 mi Variable 3.5 mph - N/A   Clear
11:51 AM 75.0 °F 51.1 °F 43% 29.89 in 10.0 mi West 8.1 mph - N/A   Partly Cloudy
12:51 PM 75.9 °F 51.1 °F 42% 29.87 in 10.0 mi Variable 5.8 mph - N/A   Clear
1:51 PM 78.1 °F 48.0 °F 35% 29.84 in 10.0 mi WNW 11.5 mph 17.3 mph N/A   Clear
2:51 PM 79.0 °F 50.0 °F 36% 29.82 in 10.0 mi Variable 4.6 mph 17.3 mph N/A   Clear
3:51 PM 80.1 °F 51.1 °F 36% 29.81 in 10.0 mi West 13.8 mph 19.6 mph N/A   Clear
4:51 PM 79.0 °F 50.0 °F 36% 29.81 in 10.0 mi Variable 5.8 mph - N/A   Clear
5:51 PM 77.0 °F 50.0 °F 39% 29.81 in 10.0 mi WSW 8.1 mph - N/A   Clear
6:51 PM 75.0 °F 51.1 °F 43% 29.82 in 10.0 mi SW 5.8 mph - N/A   Clear
7:51 PM 71.1 °F 55.0 °F 57% 29.83 in 10.0 mi South 9.2 mph - N/A   Clear
8:51 PM 70.0 °F 57.0 °F 63% 29.84 in 10.0 mi SSW 4.6 mph - N/A   Clear
9:51 PM 68.0 °F 59.0 °F 73% 29.85 in 10.0 mi SW 3.5 mph - N/A   Clear
10:51 PM 68.0 °F 59.0 °F 73% 29.86 in 10.0 mi Calm Calm - N/A   Clear
11:51 PM 64.9 °F 59.0 °F 81% 29.86 in 10.0 mi Calm Calm - N/A   Clear